1505192400.75,7115,16.25,73058.3,4.25,3.59,3.59,0,*4C
1505192401.94,7116,16.25,73054.0,4.25,3.59,3.55,0,*43
1505192403.13,7117,16.25,73060.5,4.25,3.55,3.55,0,*4E
1505192404.31,7118,16.25,73060.8,4.25,3.55,3.55,0,*41
1505192405.5,7119,16.25,73058.5,4.25,3.59,3.55,0,*4C
1505192406.69,7120,16.25,73062.8,4.25,3.59,3.59,0,*4A
1505192407.88,7121,16.25,73062.8,4.25,3.59,3.55,0,*47
1505192409.07,7122,16.25,73060.8,4.25,3.59,3.59,0,*48
1505192410.23,7123,16.25,73062.0,4.23,3.55,3.55,0,*4F
1505192411.42,7124,16.25,73062.5,4.25,3.59,3.59,0,*4E
1505192412.6,7125,16.25,73062.3,4.25,3.55,3.59,0,*43
1505192413.79,7126,16.25,73058.0,4.25,3.59,3.59,0,*4C
1505192414.98,7127,16.25,73062.3,4.25,3.59,3.59,0,*4D
1505192416.17,7128,16.25,73060.0,4.25,3.55,3.55,0,*42
1505192417.35,7129,16.25,73060.0,4.23,3.55,3.53,0,*43
1505192418.54,7130,16.25,73058.8,4.25,3.59,3.55,0,*47
1505192419.73,7131,16.25,73060.8,4.23,3.53,3.55,0,*4A
1505192420.92,7132,16.25,73066.0,4.25,3.55,3.55,0,*49
1505192422.1,7133,16.25,73062.8,4.25,3.55,3.55,0,*48
1505192423.28,7134,16.25,73064.3,4.25,3.55,3.55,0,*4F
1505192424.47,7135,16.25,73066.5,4.25,3.59,3.59,0,*4E
1505192425.66,7136,16.25,73066.5,4.25,3.59,3.59,0,*4D
1505192426.85,7137,16.25,73066.3,4.25,3.59,3.55,0,*40
1505192428.01,7138,16.25,73066.8,4.23,3.55,3.55,0,*45
1505192429.2,7139,16.25,73068.5,4.25,3.59,3.59,0,*42
1505192430.36,7140,16.25,73060.8,4.23,3.55,3.55,0,*4A
1505192431.53,7141,16.25,73056.0,4.23,3.55,3.55,0,*4B
1505192432.71,7142,16.25,73054.8,4.25,3.59,3.55,0,*42
1505192433.9,7143,16.25,73066.3,4.23,3.55,3.53,0,*4F
1505192435.09,7144,16.25,73060.5,4.25,3.55,3.59,0,*44
1505192436.27,7145,16.25,73062.5,4.23,3.53,3.55,0,*49
1505192437.48,7146,16.25,73062.8,4.23,3.53,3.53,0,*4C
1505192438.67,7147,16.25,73064.3,4.23,3.53,3.55,0,*4B
1505192439.86,7148,16.25,73064.5,4.25,3.55,3.55,0,*44
1505192441.04,7149,16.25,73066.0,4.23,3.53,3.55,0,*45
1505192442.25,7150,16.25,73068.0,4.23,3.53,3.53,0,*4B
1505192443.44,7151,16.25,73068.5,4.25,3.55,3.55,0,*4C
1505192444.63,7152,16.25,73064.0,4.25,3.55,3.55,0,*4F
1505192445.81,7153,16.25,73064.0,4.25,3.55,3.59,0,*42
1505192447.0,7154,16.25,73068.0,4.25,3.55,3.59,0,*45
1505192448.18,7155,16.25,73070.8,4.23,3.55,3.53,0,*48
1505192449.37,7156,16.25,73068.0,4.23,3.53,3.55,0,*4B
1505192450.58,7157,16.25,73068.8,4.23,3.53,3.53,0,*4C
1505192451.77,7158,16.25,73066.5,4.25,3.59,3.55,0,*49
1505192452.95,7159,16.25,73064.3,4.23,3.55,3.53,0,*44
1505192454.12,7160,16.25,73070.8,4.23,3.55,3.55,0,*48
1505192455.3,7161,16.25,73068.3,4.23,3.53,3.63,0,*4A
1505192456.49,7162,16.25,73068.3,4.25,3.55,3.59,0,*40
1505192457.68,7163,16.25,73066.0,4.23,3.53,3.55,0,*4D
1505192458.87,7164,16.25,73068.0,4.25,3.59,3.59,0,*4A
1505192460.05,7165,16.25,73064.0,4.25,3.55,3.59,0,*47
1505192461.21,7166,16.25,73066.8,4.23,3.55,3.55,0,*4E
1505192462.38,7167,16.25,73064.0,4.23,3.63,3.55,0,*4A
1505192463.54,7168,16.25,73068.8,4.23,3.55,3.55,0,*40
1505192464.7,7169,16.25,73064.3,4.23,3.55,3.55,0,*41
1505192465.87,7170,16.25,73070.8,4.23,3.63,3.55,0,*4C
1505192467.05,7171,16.25,73068.8,4.25,3.59,3.55,0,*42
1505192468.25,7172,16.25,73070.3,4.23,3.67,3.55,0,*4A
1505192469.42,7173,16.25,73070.0,4.23,3.63,3.63,0,*4A
1505192470.61,7174,16.25,73068.0,4.23,3.67,3.63,0,*49
1505192471.78,7175,16.31,73074.3,4.23,3.63,3.63,0,*4C
1505192473.02,7176,16.25,73070.3,4.25,3.67,3.67,0,*49
1505192474.27,7177,16.25,73068.3,4.25,3.67,3.71,0,*4F
1505192475.52,7178,16.25,73078.3,4.25,3.71,3.67,0,*40
1505192476.71,7179,16.25,73074.3,4.23,3.63,3.67,0,*44
1505192477.96,7180,16.25,73070.3,4.25,3.67,3.71,0,*47
1505192479.21,7181,16.25,73070.3,4.25,3.67,3.67,0,*41
1505192480.4,7182,16.25,73076.3,4.23,3.67,3.63,0,*40
1505192481.65,7183,16.25,73070.3,4.25,3.67,3.67,0,*43
1505192482.9,7184,16.25,73068.5,4.25,3.67,3.71,0,*43
1505192484.14,7185,16.25,73068.3,4.25,3.67,3.67,0,*45
1505192485.36,7186,16.25,73070.3,4.25,3.59,3.67,0,*4B
1505192486.55,7187,16.25,73066.3,4.23,3.59,3.67,0,*4C
1505192487.77,7188,16.25,73064.0,4.25,3.59,3.67,0,*45
1505192488.95,7189,16.25,73068.3,4.25,3.59,3.55,0,*45
1505192490.12,7190,16.25,73068.3,4.23,3.55,3.55,0,*47
1505192491.33,7191,16.25,73070.0,4.23,3.53,3.53,0,*46
1505192492.54,7192,16.25,73068.5,4.23,3.53,3.53,0,*45
1505192493.73,7193,16.25,73068.3,4.25,3.55,3.59,0,*4E
1505192494.91,7194,16.25,73070.0,4.23,3.53,3.55,0,*45
1505192496.12,7195,16.25,73068.0,4.23,3.53,3.53,0,*42
1505192497.29,7196,16.25,73070.0,4.23,3.55,3.55,0,*41
1505192498.5,7197,16.25,73070.5,4.23,3.53,3.53,0,*40
1505192499.68,7198,16.25,73072.0,4.25,3.59,3.55,0,*45
1505192500.85,7199,16.25,73070.8,4.23,3.55,3.55,0,*4E
1505192502.03,7200,16.25,73070.3,4.23,3.55,3.53,0,*4B
1505192503.24,7201,16.25,73072.8,4.23,3.53,3.53,0,*4C
1505192504.45,7202,16.25,73064.8,4.23,3.53,3.53,0,*4F
1505192505.64,7203,16.25,73064.8,4.23,3.55,3.53,0,*48
1505192506.83,7204,16.25,73064.8,4.25,3.55,3.59,0,*43
1505192508.01,7205,16.25,73060.5,4.23,3.55,3.53,0,*4E
1505192509.2,7206,16.25,73066.8,4.25,3.55,3.59,0,*41
1505192510.38,7207,16.25,73064.5,4.25,3.55,3.55,0,*4C
1505192511.57,7208,16.25,73064.8,4.25,3.55,3.55,0,*43
1505192512.75,7209,16.25,73064.0,4.23,3.55,3.53,0,*42
1505192513.94,7210,16.25,73064.5,4.23,3.55,3.53,0,*4A
1505192515.12,7211,16.25,73066.3,4.25,3.55,3.55,0,*4B
1505192516.31,7212,16.25,73068.8,4.25,3.55,3.55,0,*48
1505192517.52,7213,16.25,73062.8,4.23,3.53,3.53,0,*4F
1505192518.73,7214,16.25,73066.8,4.23,3.53,3.53,0,*48
1505192519.94,7215,16.25,73070.8,4.23,3.53,3.53,0,*49
1505192521.13,7216,16.25,73066.8,4.25,3.55,3.55,0,*4C
1505192522.31,7217,16.25,73066.5,4.25,3.55,3.55,0,*4D
1505192523.52,7218,16.25,73070.0,4.23,3.53,3.53,0,*44
1505192524.74,7219,16.25,73070.8,4.23,3.53,3.53,0,*45
1505192525.92,7220,16.25,73074.3,4.25,3.55,3.55,0,*49
1505192527.13,7221,16.25,73070.0,4.23,3.53,3.53,0,*4E
1505192528.34,7222,16.25,73072.5,4.23,3.53,3.53,0,*4D
1505192529.55,7223,16.31,73072.5,4.23,3.53,3.53,0,*4C
1505192530.77,7224,16.25,73064.3,4.23,3.53,3.53,0,*4B
1505192531.98,7225,16.25,73068.8,4.23,3.53,3.53,0,*4A
1505192533.22,7226,16.25,73072.0,4.21,3.53,3.53,0,*4B
1505192534.43,7227,16.25,73068.5,4.21,3.55,3.53,0,*4C
1505192535.64,7228,16.25,73068.3,4.23,3.53,3.53,0,*47
1505192536.82,7229,16.25,73070.0,4.23,3.55,3.53,0,*40
1505192538.04,7230,16.25,73070.3,4.23,3.53,3.49,0,*45
1505192539.25,7231,16.25,73070.3,4.23,3.53,3.53,0,*4F
1505192540.47,7232,16.25,73070.3,4.23,3.49,3.49,0,*4C
1505192541.72,7233,16.25,73064.3,4.21,3.49,3.41,0,*47
1505192542.94,7234,16.25,73068.8,4.23,3.49,3.49,0,*4A
1505192544.16,7235,16.25,73064.3,4.23,3.49,3.49,0,*4B
1505192545.37,7236,16.25,73064.5,4.23,3.49,3.49,0,*48
1505192546.62,7237,16.25,73066.3,4.21,3.49,3.49,0,*4B
1505192547.84,7238,16.25,73066.0,4.19,3.45,3.45,0,*4F
1505192549.09,7239,16.25,73068.3,4.21,3.49,3.41,0,*4D
1505192550.33,7240,16.25,73064.8,4.21,3.49,3.49,0,*4B
1505192551.58,7241,16.25,73064.3,4.21,3.49,3.49,0,*4A
1505192552.82,7242,16.25,73064.8,4.21,3.49,3.49,0,*49
1505192554.08,7243,16.31,73068.0,4.21,3.41,3.49,0,*40
1505192555.32,7244,16.25,73064.5,4.21,3.49,3.49,0,*4F
1505192556.57,7245,16.25,73068.0,4.21,3.49,3.49,0,*4E
1505192557.81,7246,16.25,73070.0,4.21,3.49,3.49,0,*4D
1505192559.03,7247,16.25,73066.5,4.19,3.49,3.49,0,*47
1505192560.29,7248,16.25,73060.8,4.21,3.41,3.41,0,*43
1505192561.51,7249,16.25,73060.8,4.19,3.37,3.33,0,*4D
1505192562.76,7250,16.25,73062.0,4.21,3.37,3.41,0,*4B
1505192563.98,7251,16.25,73062.8,4.19,3.45,3.37,0,*45
1505192565.2,7252,16.25,73060.3,4.19,3.37,3.45,0,*46
1505192566.42,7253,16.25,73060.0,4.19,3.45,3.37,0,*47
1505192567.64,7254,16.25,73060.5,4.19,3.45,3.45,0,*45
1505192568.87,7255,16.25,73058.8,4.19,3.45,3.45,0,*44
1505192570.08,7256,16.25,73060.0,4.19,3.49,3.49,0,*47
1505192571.3,7257,16.25,73064.3,4.19,3.49,3.53,0,*4D
1505192572.51,7258,16.25,73062.3,4.19,3.49,3.49,0,*49
1505192573.75,7259,16.25,73060.5,4.21,3.53,3.53,0,*43
1505192574.97,7260,16.25,73064.8,4.19,3.49,3.49,0,*42
1505192576.18,7261,16.25,73060.3,4.21,3.55,3.53,0,*4E
1505192577.39,7262,16.25,73062.3,4.19,3.49,3.53,0,*4B
1505192578.61,7263,16.25,73060.5,4.21,3.63,3.53,0,*49
1505192579.8,7264,16.25,73060.8,4.19,3.55,3.53,0,*40
1505192581.01,7265,16.25,73056.8,4.19,3.53,3.49,0,*4C
1505192582.23,7266,16.25,73058.3,4.19,3.53,3.53,0,*44
1505192583.44,7267,16.25,73062.5,4.19,3.53,3.53,0,*45
1505192584.63,7268,16.25,73062.0,4.21,3.55,3.55,0,*41
1505192585.84,7269,16.31,73060.0,4.19,3.53,3.53,0,*4B
1505192587.05,7270,16.25,73058.3,4.19,3.49,3.49,0,*43
1505192588.3,7271,16.25,73058.3,4.21,3.53,3.49,0,*42
1505192589.51,7272,16.25,73060.5,4.21,3.55,3.53,0,*4C
1505192590.7,7273,16.25,73060.5,4.21,3.55,3.55,0,*4B
1505192591.91,7274,16.25,73066.0,4.19,3.53,3.53,0,*47
1505192593.1,7275,16.25,73060.8,4.21,3.63,3.55,0,*48
1505192594.27,7276,16.25,73062.0,4.19,3.59,3.63,0,*4C
1505192595.46,7277,16.25,73060.0,4.21,3.63,3.63,0,*4F
1505192596.65,7278,16.25,73064.3,4.21,3.63,3.63,0,*40
1505192597.85,7279,16.31,73064.3,4.21,3.63,3.63,0,*41
1505192599.06,7280,16.25,73062.8,4.21,3.55,3.53,0,*41
1505192600.25,7281,16.25,73060.5,4.21,3.55,3.55,0,*46
1505192601.44,7282,16.25,73060.3,4.21,3.55,3.55,0,*45
1505192602.62,7283,16.25,73056.3,4.21,3.55,3.63,0,*41
1505192603.83,7284,16.25,73060.0,4.19,3.53,3.53,0,*48
1505192605.05,7285,16.25,73056.0,4.19,3.53,3.53,0,*49
1505192606.26,7286,16.25,73060.5,4.21,3.53,3.55,0,*47
1505192607.45,7287,16.25,73056.5,4.21,3.55,3.55,0,*40
1505192608.66,7288,16.25,73056.0,4.19,3.53,3.53,0,*44
1505192609.85,7289,16.25,73056.3,4.21,3.55,3.55,0,*4E
1505192611.04,7290,16.25,73056.3,4.21,3.55,3.55,0,*46
1505192612.23,7291,16.25,73056.3,4.21,3.55,3.55,0,*47
1505192613.41,7292,16.25,73056.5,4.21,3.55,3.55,0,*44
1505192614.63,7293,16.25,73056.5,4.19,3.53,3.53,0,*4E
1505192615.82,7294,16.25,73058.8,4.21,3.55,3.63,0,*47
1505192617.04,7295,16.25,73058.3,4.21,3.67,3.63,0,*47
1505192618.23,7296,16.25,73062.5,4.21,3.55,3.63,0,*45
1505192619.39,7297,16.31,73066.5,4.23,3.55,3.55,0,*43
1505192620.58,7298,16.25,73062.0,4.21,3.55,3.55,0,*4E
1505192621.77,7299,16.25,73056.8,4.21,3.55,3.55,0,*4F
1505192622.95,7300,16.25,73062.3,4.21,3.55,3.55,0,*4E
1505192624.14,7301,16.25,73058.8,4.21,3.55,3.55,0,*4F
1505192625.36,7302,16.31,73064.8,4.21,3.53,3.55,0,*4A
1505192626.54,7303,16.25,73062.3,4.19,3.49,3.59,0,*47
1505192627.73,7304,16.25,73062.5,4.21,3.55,3.55,0,*4A
1505192628.92,7305,16.25,73058.0,4.21,3.55,3.55,0,*4B
1505192630.11,7306,16.25,73060.0,4.21,3.55,3.55,0,*48
1505192631.32,7307,16.25,73058.3,4.21,3.53,3.55,0,*4F
1505192632.51,7308,16.25,73060.3,4.21,3.55,3.55,0,*46
1505192633.75,7309,16.25,73062.0,4.21,3.53,3.53,0,*47
1505192634.96,7310,16.25,73060.8,4.21,3.55,3.53,0,*49
1505192636.2,7311,16.25,73064.3,4.21,3.53,3.53,0,*4E
1505192637.41,7312,16.25,73060.8,4.21,3.55,3.53,0,*4B
1505192638.63,7313,16.25,73060.3,4.19,3.53,3.53,0,*47
1505192639.81,7314,16.25,73060.5,4.21,3.55,3.55,0,*4B
1505192641.0,7315,16.25,73058.8,4.21,3.55,3.55,0,*4A
1505192642.19,7316,16.25,73056.8,4.21,3.55,3.55,0,*49
1505192643.38,7317,16.31,73064.3,4.21,3.55,3.55,0,*48
1505192644.62,7318,16.25,73060.5,4.21,3.53,3.53,0,*47
1505192645.81,7319,16.25,73060.8,4.21,3.55,3.55,0,*46
1505192647.04,7320,16.25,73062.0,4.21,3.53,3.53,0,*4C
1505192648.26,7321,16.25,73062.5,4.21,3.53,3.55,0,*4B
1505192649.44,7322,16.25,73060.0,4.19,3.55,3.53,0,*43
1505192650.63,7323,16.25,73060.3,4.21,3.55,3.55,0,*4F
1505192651.82,7324,16.25,73062.0,4.21,3.55,3.55,0,*48
1505192653.01,7325,16.25,73058.3,4.19,3.53,3.59,0,*48
1505192654.22,7326,16.25,73060.8,4.21,3.55,3.53,0,*4C
1505192655.44,7327,16.25,73062.5,4.21,3.53,3.55,0,*4D
1505192656.62,7328,16.25,73058.5,4.21,3.55,3.55,0,*44
1505192657.84,7329,16.25,73062.5,4.21,3.53,3.55,0,*43
1505192659.02,7330,16.25,73056.8,4.21,3.55,3.55,0,*4D
1505192660.21,7331,16.25,73054.0,4.21,3.55,3.55,0,*4C
1505192661.43,7332,16.25,73056.8,4.19,3.53,3.53,0,*44
1505192662.64,7333,16.25,73060.8,4.21,3.53,3.63,0,*4D
1505192663.86,7334,16.25,73060.3,4.21,3.67,3.63,0,*4D
1505192665.06,7335,16.25,73060.0,4.21,3.63,3.63,0,*48
1505192666.27,7336,16.25,73056.0,4.21,3.63,3.67,0,*4F
1505192667.47,7337,16.25,73060.5,4.21,3.63,3.63,0,*4A
1505192668.66,7338,16.25,73056.0,4.21,3.63,3.55,0,*40
1505192669.85,7339,16.25,73062.0,4.21,3.63,3.63,0,*44
1505192671.04,7340,16.25,73062.5,4.21,3.63,3.63,0,*4A
1505192672.23,7341,16.25,73062.5,4.21,3.63,3.63,0,*4B
1505192673.46,7342,16.25,73062.3,4.21,3.67,3.63,0,*4C
1505192674.68,7343,16.25,73060.3,4.21,3.63,3.67,0,*4D
1505192675.93,7344,16.25,73058.8,4.21,3.67,3.67,0,*4E
1505192677.18,7345,16.25,73060.8,4.21,3.67,3.67,0,*4F
1505192678.34,7346,16.25,73060.5,4.19,3.63,3.59,0,*4E
1505192679.59,7347,16.25,73058.5,4.21,3.67,3.67,0,*4D
1505192680.82,7348,16.25,73062.5,4.21,3.67,3.63,0,*46
1505192682.03,7349,16.25,73060.3,4.21,3.63,3.67,0,*47
1505192683.26,7350,16.25,73058.8,4.21,3.67,3.63,0,*4F
1505192684.42,7351,16.25,73060.8,4.23,3.63,3.63,0,*48
1505192685.59,7352,16.25,73060.0,4.23,3.63,3.63,0,*4B
1505192686.81,7353,16.25,73058.5,4.23,3.67,3.67,0,*4A
1505192687.98,7354,16.25,73058.0,4.23,3.63,3.63,0,*4D
1505192689.17,7355,16.25,73062.0,4.23,3.67,3.63,0,*48
1505192690.36,7356,16.25,73060.5,4.23,3.63,3.67,0,*4B
1505192691.59,7357,16.25,73064.8,4.23,3.67,3.67,0,*4E
1505192692.84,7358,16.25,73066.0,4.21,3.67,3.67,0,*43
1505192694.03,7359,16.25,73066.3,4.23,3.63,3.67,0,*44
1505192695.23,7360,16.25,73062.3,4.23,3.67,3.63,0,*4E
1505192696.42,7361,16.25,73066.3,4.23,3.63,3.67,0,*4F
1505192697.61,7362,16.25,73060.5,4.23,3.67,3.63,0,*4C
1505192698.81,7363,16.25,73066.5,4.23,3.67,3.63,0,*4D
1505192700.06,7364,16.25,73062.8,4.25,3.71,3.71,0,*48
1505192701.28,7365,16.25,73066.0,4.23,3.67,3.67,0,*4F
1505192702.5,7366,16.25,73062.8,4.23,3.67,3.67,0,*4C
1505192703.73,7367,16.25,73060.5,4.23,3.67,3.67,0,*4D
1505192704.95,7368,16.25,73062.5,4.23,3.67,3.67,0,*42
1505192706.17,7369,16.25,73058.5,4.23,3.75,3.67,0,*40
1505192707.42,7370,16.25,73062.0,4.25,3.67,3.71,0,*4A
1505192708.67,7371,16.25,73062.5,4.25,3.67,3.71,0,*4B
1505192709.92,7372,16.25,73060.8,4.25,3.71,3.71,0,*4F
1505192711.14,7373,16.25,73062.5,4.23,3.67,3.67,0,*48
1505192712.34,7374,16.25,73062.3,4.23,3.67,3.63,0,*4B
1505192713.58,7375,16.25,73060.8,4.25,3.71,3.71,0,*48
1505192714.81,7376,16.25,73066.0,4.23,3.67,3.75,0,*4E
1505192716.03,7377,16.25,73062.8,4.23,3.67,3.67,0,*4C
1505192717.26,7378,16.25,73066.3,4.23,3.67,3.67,0,*43
1505192718.45,7379,16.25,73060.0,4.23,3.63,3.67,0,*46
1505192719.61,7380,16.25,73062.8,4.23,3.63,3.63,0,*44
1505192720.8,7381,16.25,73064.8,4.23,3.63,3.67,0,*41
1505192722.05,7382,16.25,73060.0,4.25,3.71,3.71,0,*40
1505192723.27,7383,16.25,73062.5,4.25,3.71,3.63,0,*42
1505192724.51,7384,16.25,73066.3,4.25,3.67,3.67,0,*46
1505192725.76,7385,16.25,73062.3,4.25,3.67,3.67,0,*47
1505192726.93,7386,16.25,73062.5,4.23,3.63,3.63,0,*42
1505192728.12,7387,16.25,73062.8,4.23,3.67,3.63,0,*47
1505192729.37,7388,16.25,73058.5,4.25,3.67,3.67,0,*4A
1505192730.56,7389,16.25,73060.5,4.23,3.63,3.67,0,*49
1505192731.75,7390,16.25,73058.5,4.23,3.63,3.67,0,*41
1505192732.95,7391,16.25,73060.5,4.23,3.67,3.63,0,*40
1505192734.17,7392,16.25,73058.8,4.25,3.71,3.59,0,*4B
1505192735.36,7393,16.25,73058.8,4.23,3.63,3.67,0,*42
1505192736.6,7394,16.25,73056.0,4.25,3.71,3.71,0,*47
1505192737.85,7395,16.25,73054.8,4.25,3.67,3.67,0,*46
1505192739.09,7396,16.25,73056.8,4.25,3.71,3.67,0,*42
1505192740.34,7397,16.25,73060.0,4.25,3.71,3.67,0,*43
1505192741.59,7398,16.25,73060.5,4.25,3.67,3.67,0,*4B
1505192742.75,7399,16.25,73058.3,4.23,3.63,3.63,0,*4C
1505192743.92,7400,16.25,73054.8,4.23,3.63,3.63,0,*4B
1505192745.14,7401,16.25,73056.8,4.23,3.67,3.75,0,*49
1505192746.37,7402,16.25,73060.8,4.23,3.67,3.67,0,*49
1505192747.61,7403,16.25,73060.3,4.25,3.71,3.67,0,*49
1505192748.81,7404,16.25,73060.5,4.23,3.67,3.63,0,*4B
1505192750.05,7405,16.25,73056.0,4.25,3.71,3.71,0,*48
1505192751.3,7406,16.25,73060.3,4.25,3.71,3.71,0,*4B
1505192752.54,7407,16.25,73060.8,4.25,3.67,3.67,0,*4A
1505192753.73,7408,16.25,73060.8,4.23,3.63,3.67,0,*47
1505192754.98,7409,16.25,73060.8,4.25,3.67,3.67,0,*44
1505192756.2,7410,16.25,73058.8,4.25,3.59,3.71,0,*46
1505192757.41,7411,16.25,73066.0,4.25,3.59,3.67,0,*40
1505192758.63,7412,16.25,73066.0,4.25,3.59,3.67,0,*43
1505192759.79,7413,16.25,73060.3,4.23,3.63,3.63,0,*49
1505192761.04,7414,16.25,73062.0,4.25,3.67,3.67,0,*48
1505192762.23,7415,16.25,73062.8,4.23,3.63,3.67,0,*4B
1505192763.43,7416,16.25,73060.0,4.23,3.67,3.63,0,*48
1505192764.68,7417,16.25,73062.0,4.25,3.67,3.71,0,*4C
1505192765.84,7418,16.25,73058.5,4.23,3.63,3.63,0,*42
1505192767.01,7419,16.25,73060.5,4.23,3.63,3.63,0,*43
1505192768.2,7420,16.25,73062.8,4.23,3.63,3.67,0,*4D
1505192769.36,7421,16.25,73060.0,4.23,3.63,3.63,0,*48
1505192770.61,7422,16.25,73062.3,4.25,3.71,3.67,0,*4A
1505192771.77,7423,16.25,73064.5,4.23,3.63,3.55,0,*4F
1505192773.02,7424,16.25,73062.0,4.25,3.67,3.71,0,*4C
1505192774.25,7425,16.25,73064.0,4.23,3.67,3.67,0,*4C
1505192775.44,7426,16.25,73062.5,4.23,3.63,3.67,0,*4B
1505192776.66,7427,16.25,73062.8,4.23,3.67,3.67,0,*4E
1505192777.91,7428,16.25,73062.8,4.25,3.67,3.71,0,*40
1505192779.15,7429,16.25,73066.0,4.25,3.71,3.67,0,*41
1505192780.4,7430,16.25,73064.3,4.25,3.71,3.71,0,*4E
1505192781.65,7431,16.25,73062.8,4.25,3.67,3.67,0,*4F
1505192782.84,7432,16.25,73062.0,4.23,3.67,3.63,0,*4E
1505192784.09,7433,16.25,73066.0,4.25,3.71,3.67,0,*4A
1505192785.33,7434,16.25,73060.0,4.25,3.71,3.71,0,*4A
1505192786.55,7435,16.25,73062.0,4.23,3.67,3.67,0,*4D
1505192787.8,7436,16.25,73062.8,4.25,3.71,3.79,0,*40
1505192789.0,7437,16.25,73060.0,4.23,3.67,3.63,0,*4B
1505192790.24,7438,16.25,73060.3,4.25,3.71,3.71,0,*46
1505192791.46,7439,16.25,73062.0,4.27,3.71,3.71,0,*45
1505192792.68,7440,16.25,73058.5,4.27,3.71,3.71,0,*4B
1505192793.9,7441,16.25,73060.0,4.25,3.67,3.59,0,*45
1505192795.15,7442,16.25,73060.5,4.25,3.67,3.71,0,*4C
1505192796.4,7443,16.25,73060.8,4.25,3.67,3.67,0,*4A
1505192797.64,7444,16.25,73066.8,4.25,3.71,3.67,0,*4A
1505192798.89,7445,16.25,73060.5,4.25,3.67,3.67,0,*4C
1505192800.11,7446,16.25,73056.5,4.25,3.67,3.59,0,*42
1505192801.33,7447,16.25,73056.0,4.25,3.67,3.59,0,*43
1505192802.55,7448,16.25,73058.0,4.25,3.67,3.59,0,*4C
1505192803.74,7449,16.25,73054.8,4.25,3.55,3.59,0,*4C
1505192804.95,7450,16.25,73058.3,4.23,3.53,3.67,0,*49
1505192806.2,7451,16.25,73060.8,4.25,3.67,3.67,0,*49
1505192807.44,7452,16.25,73060.5,4.25,3.67,3.67,0,*4A
1505192808.69,7453,16.25,73060.8,4.25,3.67,3.67,0,*4B
1505192809.94,7454,16.25,73058.5,4.25,3.67,3.67,0,*4C
1505192811.18,7455,16.25,73056.8,4.25,3.67,3.67,0,*4D
1505192812.4,7456,16.25,73060.0,4.25,3.59,3.67,0,*43
1505192813.61,7457,16.25,73060.8,4.25,3.59,3.67,0,*42
1505192814.83,7458,16.25,73064.0,4.25,3.59,3.67,0,*4D
1505192815.99,7459,16.25,73064.8,4.23,3.55,3.63,0,*42
1505192817.24,7460,16.25,73062.0,4.25,3.67,3.67,0,*4B
1505192818.46,7461,16.25,73060.8,4.23,3.67,3.75,0,*4F
1505192819.68,7462,16.25,73064.5,4.27,3.71,3.71,0,*4B
1505192820.93,7463,16.25,73062.0,4.25,3.71,3.67,0,*4F
1505192822.17,7464,16.25,73058.3,4.25,3.67,3.67,0,*4F
1505192823.39,7465,16.25,73058.5,4.27,3.67,3.67,0,*4C
1505192824.61,7466,16.25,73060.8,4.25,3.59,3.67,0,*40
1505192825.8,7467,16.25,73056.8,4.25,3.59,3.59,0,*4C
1505192826.99,7468,16.25,73062.5,4.25,3.59,3.59,0,*43
1505192828.21,7469,16.25,73062.3,4.25,3.67,3.59,0,*4F
1505192829.46,7470,16.25,73060.3,4.25,3.67,3.67,0,*4A
1505192830.67,7471,16.25,73056.8,4.25,3.59,3.67,0,*46
1505192831.92,7472,16.25,73062.0,4.25,3.67,3.71,0,*4F
1505192833.17,7473,16.25,73058.5,4.25,3.67,3.67,0,*49
1505192834.41,7474,16.25,73060.5,4.25,3.71,3.71,0,*4E
1505192835.66,7475,16.25,73056.5,4.25,3.67,3.71,0,*48
1505192836.91,7476,16.25,73058.5,4.25,3.67,3.67,0,*4C
1505192838.15,7477,16.25,73060.3,4.25,3.71,3.67,0,*4A
1505192839.4,7478,16.25,73058.8,4.25,3.71,3.67,0,*45
1505192840.64,7479,16.25,73062.8,4.25,3.67,3.67,0,*43
1505192841.89,7480,16.25,73060.3,4.25,3.71,3.71,0,*45
1505192843.14,7481,16.31,73060.0,4.25,3.67,3.71,0,*43
1505192844.38,7482,16.25,73056.8,4.25,3.71,3.71,0,*47
1505192845.57,7483,16.25,73058.0,4.25,3.59,3.59,0,*46
1505192846.79,7484,16.25,73060.5,4.25,3.67,3.55,0,*40
1505192848.04,7485,16.25,73056.5,4.25,3.67,3.71,0,*47
1505192849.26,7486,16.25,73056.5,4.27,3.67,3.67,0,*41
1505192850.51,7487,16.25,73060.0,4.25,3.67,3.71,0,*45
1505192851.76,7488,16.25,73058.8,4.25,3.71,3.71,0,*4D
1505192852.98,7489,16.25,73056.3,4.27,3.71,3.71,0,*4E
1505192854.22,7490,16.25,73060.5,4.25,3.71,3.71,0,*44
1505192855.47,7491,16.25,73058.0,4.25,3.71,3.67,0,*42
1505192856.71,7492,16.25,73062.5,4.25,3.71,3.71,0,*46
1505192857.96,7493,16.25,73058.3,4.25,3.71,3.71,0,*47
1505192859.2,7494,16.25,73056.5,4.25,3.71,3.67,0,*47
1505192860.42,7495,16.25,73052.5,4.25,3.59,3.67,0,*4C
1505192861.66,7496,16.25,73058.0,4.25,3.67,3.71,0,*45
1505192862.88,7497,16.25,73054.5,4.27,3.67,3.67,0,*41
1505192864.1,7498,16.25,73054.3,4.27,3.71,3.79,0,*46
1505192865.32,7499,16.25,73052.3,4.27,3.71,3.71,0,*4F
1505192866.54,7500,16.25,73058.3,4.27,3.71,3.71,0,*4E
1505192867.76,7501,16.25,73052.3,4.27,3.71,3.71,0,*4F
1505192868.98,7502,16.25,73056.8,4.27,3.71,3.71,0,*4C
1505192870.22,7503,16.25,73052.5,4.25,3.71,3.71,0,*4F
1505192871.45,7504,16.25,73054.5,4.25,3.67,3.59,0,*45
1505192872.64,7505,16.25,73052.8,4.25,3.59,3.59,0,*49
1505192873.88,7506,16.25,73056.3,4.25,3.67,3.67,0,*4A
1505192875.1,7507,16.25,73058.8,4.27,3.67,3.67,0,*49
1505192876.35,7508,16.25,73058.3,4.25,3.67,3.71,0,*43
1505192877.57,7509,16.25,73062.5,4.27,3.71,3.71,0,*47
1505192878.79,7510,16.25,73062.3,4.27,3.67,3.71,0,*48
1505192880.02,7511,16.25,73058.8,4.29,3.75,3.75,0,*40
1505192881.24,7512,16.25,73058.5,4.27,3.79,3.79,0,*4D
1505192882.46,7513,16.25,73056.3,4.27,3.71,3.67,0,*4B
1505192883.68,7514,16.25,73060.5,4.27,3.67,3.67,0,*4B
1505192884.9,7515,16.25,73058.8,4.27,3.67,3.71,0,*4D
1505192886.12,7516,16.25,73056.3,4.27,3.71,3.71,0,*49
1505192887.34,7517,16.25,73054.5,4.27,3.67,3.67,0,*48
1505192888.56,7518,16.25,73058.3,4.27,3.67,3.71,0,*40
1505192889.79,7519,16.25,73058.3,4.29,3.67,3.71,0,*4F
1505192890.98,7520,16.25,73054.0,4.27,3.59,3.67,0,*41
1505192892.17,7521,16.25,73058.0,4.27,3.59,3.71,0,*47
1505192893.39,7522,16.25,73054.5,4.27,3.67,3.71,0,*49
1505192894.61,7523,16.25,73056.0,4.27,3.67,3.67,0,*4F
1505192895.84,7524,16.25,73054.5,4.27,3.67,3.67,0,*48
1505192897.05,7525,16.25,73052.0,4.27,3.71,3.67,0,*4E
1505192898.28,7526,16.25,73054.8,4.27,3.67,3.71,0,*4D
1505192899.49,7527,16.25,73054.3,4.27,3.71,3.67,0,*4C
1505192900.71,7528,16.25,73058.0,4.27,3.71,3.67,0,*43
1505192901.93,7529,16.25,73058.3,4.27,3.67,3.71,0,*42
1505192903.15,7530,16.25,73058.0,4.27,3.67,3.67,0,*4D
1505192904.37,7531,16.25,73060.0,4.27,3.67,3.67,0,*4C
1505192905.59,7532,16.25,73062.8,4.27,3.67,3.67,0,*4F
1505192906.81,7533,16.25,73062.3,4.27,3.67,3.67,0,*4E
1505192908.04,7534,16.25,73056.5,4.29,3.75,3.75,0,*47
1505192909.26,7535,16.25,73056.0,4.27,3.67,3.67,0,*48
1505192910.48,7536,16.25,73062.8,4.27,3.71,3.67,0,*4C
1505192911.7,7537,16.25,73060.0,4.27,3.71,3.71,0,*4A
1505192912.93,7538,16.25,73056.5,4.29,3.71,3.71,0,*4B
1505192914.12,7539,16.25,73058.5,4.27,3.67,3.59,0,*49
1505192915.28,7540,16.25,73056.0,4.27,3.59,3.59,0,*4A
1505192916.51,7541,16.25,73056.5,4.29,3.71,3.71,0,*45
1505192917.73,7542,16.25,73056.8,4.27,3.71,3.71,0,*48
1505192918.95,7543,16.25,73056.0,4.27,3.67,3.67,0,*49
1505192920.18,7544,16.25,73058.8,4.29,3.71,3.75,0,*44
1505192921.4,7545,16.25,73056.5,4.27,3.71,3.67,0,*48
1505192922.63,7546,16.25,73058.8,4.29,3.71,3.75,0,*46
1505192923.85,7547,16.25,73062.0,4.27,3.67,3.71,0,*4A
1505192925.08,7548,16.25,73056.8,4.29,3.75,3.75,0,*4C
1505192926.3,7549,16.25,73056.3,4.27,3.75,3.67,0,*40
1505192927.53,7550,16.25,73056.5,4.29,3.71,3.75,0,*41
1505192928.75,7551,16.25,73058.5,4.27,3.71,3.71,0,*4A
1505192929.98,7552,16.25,73056.3,4.29,3.75,3.75,0,*47
1505192931.22,7553,16.25,73058.0,4.29,3.67,3.75,0,*45
1505192932.43,7554,16.25,73058.0,4.27,3.71,3.79,0,*47
1505192933.66,7555,16.25,73056.3,4.29,3.75,3.75,0,*40
1505192934.87,7556,16.25,73060.0,4.29,3.75,3.85,0,*4C
1505192936.07,7557,16.25,73056.8,4.29,3.71,3.81,0,*4D
1505192937.28,7558,16.25,73058.3,4.29,3.71,3.81,0,*42
1505192938.45,7559,16.25,73056.3,4.27,3.81,3.81,0,*42